Location: Unspecified
(17.6330°N, 0.0000°E)
Time: 05:39:37
(UTC+00:00)

S-56A Canister/Altair - Pass Details

Date: 01 July 2019
Orbit: 632 x 2500 km, 38.9° (Epoch: 21 July)

Event Time Altitude Azimuth Distance (km) Brightness Sun altitude
Rises 16:53:42 0° 310° (NW) 5,035 12.9 22.5°
Reaches altitude 10° 16:58:41 10° 325° (NW) 3,646 12.0 21.4°
Maximum altitude 17:04:41 19° 8° (N) 2,497 10.4 20.0°
Drops below altitude 10° 17:09:21 10° 53° (NE) 2,740 10.1 19.0°
Sets 17:12:24 0° 72° (ENE) 3,441 10.4 18.3°
